| time (UTC) | temp F | wind direction | speed MPH | gust MPH | rain 1hr in | rain 24hr in | rain mn in | humidity % | barometer mb |
| 20260504151010 | 70 | 238 | 2.0 | 3.0 | 0.00 | 0.00 | 0.00 | 37 | 1014.3 |
| 20260504150508 | 70 | 221 | 3.0 | 3.0 | 0.00 | 0.00 | 0.00 | 35 | 1014.1 |
| 20260504140933 | 65 | 167 | 1.0 | 1.0 | 0.00 | 0.00 | 0.00 | 42 | 1014.1 |
| 20260504140430 | 64 | 101 | 0.0 | 1.0 | 0.00 | 0.00 | 0.00 | 43 | 1014.2 |
| 20260504130355 | 58 | 212 | 3.0 | 3.0 | 0.00 | 0.00 | 0.00 | 49 | 1015.0 |
| 20260504120318 | 53 | 127 | 2.0 | 2.0 | 0.00 | 0.00 | 0.00 | 61 | 1015.1 |
| 20260504110242 | 50 | 92 | 0.0 | 0.0 | 0.00 | 0.00 | 0.00 | 67 | 1015.6 |
| 20260504100200 | 50 | 111 | 0.0 | 0.0 | 0.00 | 0.00 | 0.00 | 61 | 1015.3 |
| 20260504090122 | 51 | 156 | 2.0 | 2.0 | 0.00 | 0.00 | 0.00 | 62 | 1015.3 |
| 20260504081552 | 51 | 119 | 0.0 | 0.0 | 0.00 | 0.00 | 0.00 | 63 | 1015.5 |
| 20260504081048 | 51 | 123 | 0.0 | 0.0 | 0.00 | 0.00 | 0.00 | 62 | 1015.5 |
| 20260504080545 | 51 | 118 | 0.0 | 0.0 | 0.00 | 0.00 | 0.00 | 62 | 1015.5 |
| 20260504050358 | 46 | 90 | 0.0 | 0.0 | 0.00 | 0.00 | 0.00 | 72 | 1015.8 |
| 20260504045855 | 46 | 87 | 0.0 | 0.0 | 0.00 | 0.00 | 0.00 | 73 | 1015.7 |
| 20260504045350 | 45 | 85 | 0.0 | 0.0 | 0.00 | 0.00 | 0.00 | 72 | 1015.7 |
| 20260504044847 | 45 | 85 | 0.0 | 0.0 | 0.00 | 0.00 | 0.00 | 72 | 1015.8 |
| 20260504044344 | 46 | 84 | 0.0 | 0.0 | 0.00 | 0.00 | 0.00 | 72 | 1015.7 |
| 20260504043842 | 45 | 84 | 0.0 | 0.0 | 0.00 | 0.00 | 0.00 | 72 | 1015.8 |
| 20260504043338 | 45 | 81 | 0.0 | 0.0 | 0.00 | 0.00 | 0.00 | 72 | 1015.9 |
| 20260504042836 | 45 | 85 | 0.0 | 0.0 | 0.00 | 0.00 | 0.00 | 73 | 1015.6 |
| 20260504042332 | 44 | 85 | 0.0 | 0.0 | 0.00 | 0.00 | 0.00 | 73 | 1015.8 |
| 20260504041828 | 44 | 84 | 0.0 | 0.0 | 0.00 | 0.00 | 0.00 | 73 | 1015.7 |
| 20260504041325 | 44 | 83 | 0.0 | 0.0 | 0.00 | 0.00 | 0.00 | 74 | 1015.6 |
| 20260504040821 | 43 | 87 | 0.0 | 0.0 | 0.00 | 0.00 | 0.00 | 74 | 1015.6 |
| 20260504040319 | 43 | 87 | 0.0 | 0.0 | 0.00 | 0.00 | 0.00 | 74 | 1015.7 |
| 20260504035814 | 43 | 89 | 0.0 | 0.0 | 0.00 | 0.00 | 0.00 | 73 | 1015.9 |
| 20260504035312 | 44 | 89 | 0.0 | 0.0 | 0.00 | 0.00 | 0.00 | 73 | 1015.8 |
| 20260504034809 | 44 | 86 | 0.0 | 0.0 | 0.00 | 0.00 | 0.00 | 72 | 1015.9 |
| 20260504034307 | 44 | 86 | 0.0 | 0.0 | 0.00 | 0.00 | 0.00 | 71 | 1015.9 |
| 20260504033804 | 44 | 86 | 0.0 | 0.0 | 0.00 | 0.00 | 0.00 | 70 | 1015.8 |
| 20260504033301 | 44 | 86 | 0.0 | 0.0 | 0.00 | 0.00 | 0.00 | 70 | 1015.6 |
| 20260504032758 | 45 | 86 | 0.0 | 0.0 | 0.00 | 0.00 | 0.00 | 69 | 1015.5 |
| 20260504032255 | 45 | 86 | 0.0 | 0.0 | 0.00 | 0.00 | 0.00 | 67 | 1015.5 |
| 20260504031752 | 45 | 87 | 0.0 | 0.0 | 0.00 | 0.00 | 0.00 | 67 | 1015.4 |
| 20260504031249 | 46 | 86 | 0.0 | 0.0 | 0.00 | 0.00 | 0.00 | 66 | 1015.6 |
| 20260504030745 | 46 | 86 | 0.0 | 0.0 | 0.00 | 0.00 | 0.00 | 66 | 1015.7 |
| 20260504030242 | 46 | 86 | 0.0 | 0.0 | 0.00 | 0.00 | 0.00 | 65 | 1015.4 |
| 20260504025738 | 46 | 86 | 0.0 | 0.0 | 0.00 | 0.00 | 0.00 | 65 | 1015.5 |
| 20260504025236 | 45 | 86 | 0.0 | 0.0 | 0.00 | 0.00 | 0.00 | 65 | 1015.5 |
| 20260504024732 | 46 | 88 | 0.0 | 0.0 | 0.00 | 0.00 | 0.00 | 63 | 1015.6 |
| 20260504024229 | 46 | 88 | 0.0 | 0.0 | 0.00 | 0.00 | 0.00 | 63 | 1015.5 |
| 20260504023726 | 46 | 87 | 0.0 | 0.0 | 0.00 | 0.00 | 0.00 | 62 | 1015.4 |
| 20260504023222 | 46 | 89 | 0.0 | 0.0 | 0.00 | 0.00 | 0.00 | 62 | 1015.6 |
| 20260504022718 | 46 | 89 | 0.0 | 0.0 | 0.00 | 0.00 | 0.00 | 61 | 1015.3 |
| 20260504022215 | 46 | 88 | 0.0 | 0.0 | 0.00 | 0.00 | 0.00 | 61 | 1015.4 |
| 20260504021712 | 47 | 86 | 0.0 | 0.0 | 0.00 | 0.00 | 0.00 | 61 | 1015.3 |
| 20260504021209 | 47 | 89 | 0.0 | 0.0 | 0.00 | 0.00 | 0.00 | 60 | 1015.2 |
| 20260504020706 | 48 | 93 | 0.0 | 0.0 | 0.00 | 0.00 | 0.00 | 59 | 1015.4 |
| 20260504020202 | 47 | 88 | 0.0 | 0.0 | 0.00 | 0.00 | 0.00 | 59 | 1015.3 |
| 20260504015658 | 48 | 88 | 0.0 | 0.0 | 0.00 | 0.00 | 0.00 | 58 | 1015.1 |
| 20260504015155 | 48 | 88 | 0.0 | 0.0 | 0.00 | 0.00 | 0.00 | 56 | 1015.0 |
| 20260504014650 | 49 | 88 | 0.0 | 0.0 | 0.00 | 0.00 | 0.00 | 55 | 1015.1 |
| 20260504014148 | 49 | 88 | 0.0 | 0.0 | 0.00 | 0.00 | 0.00 | 53 | 1014.9 |
| 20260504013645 | 50 | 89 | 0.0 | 0.0 | 0.00 | 0.00 | 0.00 | 53 | 1015.0 |
| 20260504013142 | 50 | 92 | 0.0 | 0.0 | 0.00 | 0.00 | 0.00 | 51 | 1014.9 |
| 20260504012639 | 51 | 85 | 0.0 | 0.0 | 0.00 | 0.00 | 0.00 | 50 | 1014.7 |
| 20260504012137 | 50 | 88 | 0.0 | 0.0 | 0.00 | 0.00 | 0.00 | 51 | 1014.9 |
| 20260504011633 | 50 | 97 | 0.0 | 0.0 | 0.00 | 0.00 | 0.00 | 51 | 1014.5 |
| 20260504011130 | 51 | 89 | 0.0 | 0.0 | 0.00 | 0.00 | 0.00 | 50 | 1014.9 |
| 20260504010626 | 51 | 90 | 0.0 | 0.0 | 0.00 | 0.00 | 0.00 | 49 | 1015.0 |
| 20260504010122 | 51 | 89 | 0.0 | 0.0 | 0.00 | 0.00 | 0.00 | 48 | 1014.7 |
| 20260504005619 | 51 | 93 | 0.0 | 0.0 | 0.00 | 0.00 | 0.00 | 48 | 1015.1 |
| 20260504005116 | 51 | 97 | 0.0 | 0.0 | 0.00 | 0.00 | 0.00 | 47 | 1014.9 |
| 20260504004614 | 52 | 90 | 0.0 | 0.0 | 0.00 | 0.00 | 0.00 | 46 | 1014.9 |
| 20260504004111 | 52 | 91 | 0.0 | 0.0 | 0.00 | 0.00 | 0.00 | 45 | 1014.7 |
| 20260504003607 | 53 | 91 | 0.0 | 0.0 | 0.00 | 0.00 | 0.00 | 44 | 1014.5 |
| 20260504003104 | 53 | 91 | 0.0 | 0.0 | 0.00 | 0.00 | 0.00 | 42 | 1014.5 |
| 20260504002601 | 54 | 91 | 0.0 | 0.0 | 0.00 | 0.00 | 0.00 | 41 | 1014.5 |
| 20260504002058 | 54 | 92 | 0.0 | 0.0 | 0.00 | 0.00 | 0.00 | 41 | 1014.7 |
| 20260504001556 | 55 | 97 | 0.0 | 0.0 | 0.00 | 0.00 | 0.00 | 38 | 1014.5 |
| 20260504001051 | 56 | 97 | 0.0 | 0.0 | 0.00 | 0.00 | 0.00 | 38 | 1014.4 |
| 20260504000549 | 56 | 107 | 0.0 | 0.0 | 0.00 | 0.00 | 0.00 | 36 | 1014.3 |
| 20260504000047 | 57 | 91 | 0.0 | 0.0 | 0.00 | 0.00 | 0.00 | 35 | 1014.5 |
| 20260503235545 | 58 | 98 | 0.0 | 0.0 | 0.00 | 0.00 | 0.00 | 34 | 1014.5 |
| 20260503235041 | 58 | 83 | 0.0 | 0.0 | 0.00 | 0.00 | 0.00 | 33 | 1014.4 |
| 20260503234539 | 59 | 101 | 0.0 | 0.0 | 0.00 | 0.00 | 0.00 | 33 | 1014.3 |
| 20260503234037 | 59 | 100 | 0.0 | 0.0 | 0.00 | 0.00 | 0.00 | 32 | 1014.4 |
| 20260503233533 | 60 | 93 | 0.0 | 0.0 | 0.00 | 0.00 | 0.00 | 31 | 1014.4 |
| 20260503233029 | 60 | 96 | 0.0 | 0.0 | 0.00 | 0.00 | 0.00 | 32 | 1014.0 |
| 20260503232526 | 60 | 93 | 0.0 | 0.0 | 0.00 | 0.00 | 0.00 | 31 | 1014.2 |
| 20260503232024 | 61 | 87 | 0.0 | 1.0 | 0.00 | 0.00 | 0.00 | 29 | 1014.0 |
| 20260503231522 | 61 | 92 | 0.0 | 0.0 | 0.00 | 0.00 | 0.00 | 30 | 1014.0 |
| 20260503231018 | 61 | 132 | 0.0 | 1.0 | 0.00 | 0.00 | 0.00 | 30 | 1014.0 |
| 20260503230515 | 61 | 205 | 1.0 | 2.0 | 0.00 | 0.00 | 0.00 | 30 | 1014.0 |
| 20260503230012 | 62 | 99 | 0.0 | 1.0 | 0.00 | 0.00 | 0.00 | 28 | 1013.9 |
| 20260503225509 | 62 | 156 | 2.0 | 3.0 | 0.00 | 0.00 | 0.00 | 28 | 1014.2 |
| 20260503225004 | 62 | 87 | 0.0 | 0.0 | 0.00 | 0.00 | 0.00 | 29 | 1014.2 |
| 20260503224502 | 62 | 124 | 0.0 | 1.0 | 0.00 | 0.00 | 0.00 | 28 | 1013.9 |
| 20260503223959 | 62 | 186 | 1.0 | 3.0 | 0.00 | 0.00 | 0.00 | 29 | 1014.4 |
| 20260503223457 | 62 | 53 | 3.0 | 6.0 | 0.00 | 0.00 | 0.00 | 28 | 1014.2 |
| 20260503222952 | 63 | 163 | 3.0 | 5.0 | 0.00 | 0.00 | 0.00 | 27 | 1014.0 |
| 20260503222451 | 62 | 116 | 2.0 | 3.0 | 0.00 | 0.00 | 0.00 | 28 | 1014.2 |
| 20260503221949 | 62 | 93 | 1.0 | 1.0 | 0.00 | 0.00 | 0.00 | 28 | 1013.9 |
| 20260503221447 | 63 | 123 | 1.0 | 2.0 | 0.00 | 0.00 | 0.00 | 28 | 1014.2 |
| 20260503220943 | 63 | 144 | 3.0 | 5.0 | 0.00 | 0.00 | 0.00 | 27 | 1014.3 |
| 20260503220439 | 63 | 277 | 2.0 | 3.0 | 0.00 | 0.00 | 0.00 | 27 | 1014.2 |
| 20260503215937 | 63 | 7 | 2.0 | 5.0 | 0.00 | 0.00 | 0.00 | 28 | 1014.1 |
| 20260503215433 | 63 | 148 | 3.0 | 3.0 | 0.00 | 0.00 | 0.00 | 28 | 1014.1 |
| 20260503214931 | 63 | 185 | 2.0 | 2.0 | 0.00 | 0.00 | 0.00 | 28 | 1014.2 |
| 20260503214429 | 63 | 172 | 2.0 | 3.0 | 0.00 | 0.00 | 0.00 | 28 | 1014.4 |
| 20260503213926 | 62 | 105 | 2.0 | 2.0 | 0.00 | 0.00 | 0.00 | 29 | 1014.2 |
| 20260503213424 | 63 | 49 | 3.0 | 5.0 | 0.00 | 0.00 | 0.00 | 27 | 1014.3 |
| 20260503212920 | 64 | 345 | 3.0 | 3.0 | 0.00 | 0.00 | 0.00 | 27 | 1014.5 |
| 20260503212418 | 64 | 63 | 0.0 | 0.0 | 0.00 | 0.00 | 0.00 | 29 | 1014.3 |
| 20260503211915 | 64 | 109 | 0.0 | 0.0 | 0.00 | 0.00 | 0.00 | 29 | 1014.2 |
| 20260503211412 | 64 | 80 | 1.0 | 1.0 | 0.00 | 0.00 | 0.00 | 27 | 1014.3 |
| 20260503210907 | 64 | 57 | 0.0 | 0.0 | 0.00 | 0.00 | 0.00 | 28 | 1014.3 |
| 20260503210405 | 63 | 226 | 3.0 | 5.0 | 0.00 | 0.00 | 0.00 | 27 | 1014.2 |
| 20260503205859 | 64 | 22 | 3.0 | 5.0 | 0.00 | 0.00 | 0.00 | 27 | 1014.6 |
| 20260503205356 | 64 | 218 | 3.0 | 5.0 | 0.00 | 0.00 | 0.00 | 27 | 1014.4 |
| 20260503204852 | 64 | 162 | 2.0 | 3.0 | 0.00 | 0.00 | 0.00 | 29 | 1014.4 |
| 20260503204349 | 64 | 240 | 3.0 | 5.0 | 0.00 | 0.00 | 0.00 | 27 | 1014.3 |
| 20260503203847 | 64 | 144 | 1.0 | 1.0 | 0.00 | 0.00 | 0.00 | 28 | 1014.3 |
| 20260503203344 | 64 | 259 | 5.0 | 8.0 | 0.00 | 0.00 | 0.00 | 27 | 1014.4 |
| 20260503202841 | 63 | 200 | 2.0 | 2.0 | 0.00 | 0.00 | 0.00 | 28 | 1014.5 |
| 20260503202339 | 63 | 90 | 1.0 | 2.0 | 0.00 | 0.00 | 0.00 | 29 | 1014.6 |
| 20260503201838 | 63 | 242 | 3.0 | 3.0 | 0.00 | 0.00 | 0.00 | 29 | 1014.7 |
| 20260503201334 | 64 | 237 | 1.0 | 2.0 | 0.00 | 0.00 | 0.00 | 28 | 1014.7 |
| 20260503200832 | 65 | 275 | 2.0 | 2.0 | 0.00 | 0.00 | 0.00 | 28 | 1014.9 |
| 20260503200327 | 63 | 243 | 4.0 | 7.0 | 0.00 | 0.00 | 0.00 | 30 | 1015.0 |
| 20260503195825 | 63 | 236 | 2.0 | 3.0 | 0.00 | 0.00 | 0.00 | 29 | 1014.8 |
| 20260503195321 | 63 | 252 | 4.0 | 7.0 | 0.00 | 0.00 | 0.00 | 29 | 1015.1 |
| 20260503194819 | 63 | 359 | 3.0 | 6.0 | 0.00 | 0.00 | 0.00 | 29 | 1015.4 |
| 20260503194314 | 63 | 44 | 2.0 | 2.0 | 0.00 | 0.00 | 0.00 | 29 | 1015.2 |
| 20260503193810 | 63 | 246 | 3.0 | 3.0 | 0.00 | 0.00 | 0.00 | 30 | 1015.3 |
| 20260503193307 | 63 | 284 | 2.0 | 5.0 | 0.00 | 0.00 | 0.00 | 30 | 1015.3 |
| 20260503192803 | 62 | 156 | 3.0 | 3.0 | 0.00 | 0.00 | 0.00 | 31 | 1015.2 |
| 20260503192258 | 60 | 59 | 1.0 | 2.0 | 0.00 | 0.00 | 0.00 | 32 | 1015.4 |
| 20260503191755 | 62 | 156 | 0.0 | 1.0 | 0.00 | 0.00 | 0.00 | 32 | 1015.5 |
| 20260503191252 | 62 | 195 | 6.0 | 14.0 | 0.00 | 0.00 | 0.00 | 30 | 1015.6 |
| 20260503190748 | 62 | 232 | 6.0 | 7.0 | 0.00 | 0.00 | 0.00 | 29 | 1015.6 |
| 20260503190245 | 61 | 262 | 4.0 | 7.0 | 0.00 | 0.00 | 0.00 | 30 | 1015.7 |
| 20260503185743 | 61 | 68 | 2.0 | 3.0 | 0.00 | 0.00 | 0.00 | 32 | 1015.8 |
| 20260503185238 | 60 | 227 | 3.0 | 5.0 | 0.00 | 0.00 | 0.00 | 32 | 1016.0 |
| 20260503184733 | 61 | 259 | 6.0 | 10.0 | 0.00 | 0.00 | 0.00 | 31 | 1015.8 |
| 20260503184230 | 60 | 224 | 3.0 | 5.0 | 0.00 | 0.00 | 0.00 | 33 | 1015.8 |
| 20260503183726 | 60 | 259 | 1.0 | 3.0 | 0.00 | 0.00 | 0.00 | 33 | 1016.3 |
| 20260503183223 | 59 | 240 | 2.0 | 3.0 | 0.00 | 0.00 | 0.00 | 33 | 1016.2 |
| 20260503182721 | 60 | 299 | 3.0 | 3.0 | 0.00 | 0.00 | 0.00 | 32 | 1016.0 |
| 20260503182220 | 60 | 331 | 3.0 | 6.0 | 0.00 | 0.00 | 0.00 | 32 | 1016.3 |
| 20260503181716 | 59 | 87 | 3.0 | 5.0 | 0.00 | 0.00 | 0.00 | 34 | 1016.1 |
| 20260503181213 | 59 | 63 | 0.0 | 0.0 | 0.00 | 0.00 | 0.00 | 35 | 1016.2 |
| 20260503180709 | 60 | 253 | 3.0 | 6.0 | 0.00 | 0.00 | 0.00 | 34 | 1016.2 |
| 20260503180208 | 59 | 200 | 3.0 | 5.0 | 0.00 | 0.00 | 0.00 | 33 | 1016.3 |
| 20260503175704 | 59 | 220 | 5.0 | 8.0 | 0.00 | 0.00 | 0.00 | 33 | 1016.1 |
| 20260503175202 | 60 | 219 | 4.0 | 7.0 | 0.00 | 0.00 | 0.00 | 32 | 1016.4 |
| 20260503174658 | 59 | 91 | 2.0 | 3.0 | 0.00 | 0.00 | 0.00 | 33 | 1016.5 |
| 20260503174155 | 60 | 72 | 3.0 | 5.0 | 0.00 | 0.00 | 0.00 | 33 | 1016.4 |
| 20260503173650 | 61 | 187 | 2.0 | 2.0 | 0.00 | 0.00 | 0.00 | 33 | 1016.5 |
| 20260503173147 | 60 | 356 | 3.0 | 3.0 | 0.00 | 0.00 | 0.00 | 33 | 1016.2 |
| 20260503172644 | 59 | 328 | 3.0 | 3.0 | 0.00 | 0.00 | 0.00 | 34 | 1016.6 |
| 20260503172141 | 58 | 155 | 1.0 | 2.0 | 0.00 | 0.00 | 0.00 | 35 | 1016.5 |
| 20260503171637 | 58 | 81 | 1.0 | 3.0 | 0.00 | 0.00 | 0.00 | 34 | 1016.4 |
| 20260503171135 | 58 | 84 | 4.0 | 7.0 | 0.00 | 0.00 | 0.00 | 33 | 1016.7 |
| 20260503170632 | 58 | 262 | 3.0 | 5.0 | 0.00 | 0.00 | 0.00 | 34 | 1016.6 |
| 20260503170129 | 58 | 51 | 1.0 | 1.0 | 0.00 | 0.00 | 0.00 | 36 | 1016.5 |